Litchfield, IL

4:19 AM CDT on May 25, 2017 (GMT -0500)
Litchfield

Weather History for K3LF - January, 2013

Change the Weather History Date:

Wednesday, January 9, 2013

  Actual Average (KALN) Record (KALN)
Temperature  
Mean Temperature 44 °F -  
Max Temperature 53 °F 36 °F 60 °F (2002)
Min Temperature 34 °F 23 °F 1 °F (1999)
Degree Days  
Heating Degree Days 22    
Moisture  
Dew Point 34 °F    
Average Humidity 75    
Maximum Humidity 91    
Minimum Humidity 48    
Precipitation  
Precipitation 0.00 in - - ()
Sea Level Pressure  
Sea Level Pressure 30.37 in    
Wind  
Wind Speed 7 mph (WNW)    
Max Wind Speed 12 mph    
Max Gust Speed -    
Visibility 10 miles    
Events Rain    
Averages and records for this station are not official NWS values.
T = Trace of Precipitation, MM = Missing Value Source: NWS Daily Summary

Daily Weather History Graph

Daily Weather History Graph

Search for Another Location

Airport or City:

Trip Planner

Search our weather history database for the weather conditions in past years. The results will help you decide how hot, cold, wet, or windy it might be!

Date:

Astronomy

Jan. 09, 2013 Rise Set
Actual Time 7:17 AM CST 4:54 PM CST
Civil Twilight 6:48 AM CST 5:23 PM CST
Nautical Twilight 6:15 AM CST 5:57 PM CST
Astronomical Twilight 5:42 AM CST 6:29 PM CST
Moon 4:57 AM CST (1/9) 2:55 PM CST (1/9)
Length of Visible Light 10h 35m
Length of Day
9h 36m
Waning Crescent, 6% of the Moon is Illuminated
Jan 9
Waning Crescent
Jan 11
New
Jan 18
First Quarter
Jan 26
Full
Feb 3
Last Quarter

Hourly Weather History & Observations

Time (CST) Temp. Windchill Dew Point Humidity Pressure Visibility Wind Dir Wind Speed Gust Speed Precip Events Conditions
12:15 AM 37.9 °F 32.1 °F 34.7 °F 88% 30.16 in 10.0 mi South 8.1 mph - N/A   Mostly Cloudy
12:35 AM 37.4 °F 32.1 °F 34.7 °F 90% 30.17 in 10.0 mi South 6.9 mph - N/A   Overcast
12:55 AM 38.1 °F 31.7 °F 34.7 °F 87% 30.18 in 10.0 mi South 9.2 mph - N/A   Mostly Cloudy
1:55 AM 38.8 °F 32.6 °F 35.6 °F 88% 30.20 in 10.0 mi South 9.2 mph - N/A Rain Light Rain
2:15 AM 39.6 °F 33.5 °F 35.8 °F 86% 30.20 in 10.0 mi South 9.2 mph - N/A Rain Light Rain
2:35 AM 39.2 °F 33.6 °F 35.8 °F 88% 30.21 in 10.0 mi SSW 8.1 mph - N/A Rain Light Rain
2:55 AM 38.7 °F 32.9 °F 36.0 °F 90% 30.22 in 10.0 mi SSW 8.1 mph - N/A Rain Rain
3:15 AM 39.4 °F 33.2 °F 36.7 °F 90% 30.22 in 10.0 mi SSW 9.2 mph - N/A   Overcast
3:35 AM 43.9 °F 38.3 °F 38.7 °F 82% 30.22 in 10.0 mi SW 10.4 mph - N/A   Overcast
3:55 AM 42.6 °F 37.8 °F 38.3 °F 85% 30.22 in 10.0 mi SW 8.1 mph - N/A   Mostly Cloudy
4:15 AM 41.0 °F 35.8 °F 37.4 °F 87% 30.23 in 10.0 mi WSW 8.1 mph - N/A   Scattered Clouds
4:55 AM 41.0 °F 35.2 °F 37.0 °F 86% 30.25 in 10.0 mi WSW 9.2 mph - N/A   Clear
5:15 AM 40.3 °F 34.9 °F 36.5 °F 86% 30.26 in 10.0 mi West 8.1 mph - N/A   Clear
5:35 AM 39.2 °F 33.6 °F 36.0 °F 88% 30.26 in 10.0 mi WSW 8.1 mph - N/A   Clear
5:55 AM 38.3 °F 32.5 °F 35.4 °F 89% 30.27 in 10.0 mi WSW 8.1 mph - N/A   Clear
6:15 AM 36.5 °F 31.0 °F 34.0 °F 91% 30.28 in 10.0 mi West 6.9 mph - N/A   Clear
6:35 AM 36.9 °F 33.1 °F 33.6 °F 88% 30.28 in 10.0 mi West 4.6 mph - N/A   Clear
6:55 AM 38.5 °F 33.4 °F 34.2 °F 84% 30.30 in 10.0 mi West 6.9 mph - N/A   Clear
7:15 AM 37.9 °F 32.7 °F 33.8 °F 85% 30.31 in 10.0 mi West 6.9 mph - N/A   Clear
7:35 AM 37.8 °F 33.3 °F 33.4 °F 84% 30.32 in 10.0 mi West 5.8 mph - N/A   Clear
7:55 AM 37.6 °F 34.0 °F 33.8 °F 86% 30.33 in 10.0 mi West 4.6 mph - N/A   Clear
8:15 AM 37.2 °F 34.7 °F 34.0 °F 88% 30.35 in 10.0 mi SW 3.5 mph - N/A   Clear
8:35 AM 38.5 °F 34.1 °F 35.1 °F 87% 30.36 in 10.0 mi WSW 5.8 mph - N/A   Clear
8:55 AM 40.5 °F 36.5 °F 35.1 °F 81% 30.36 in 10.0 mi West 5.8 mph - N/A   Clear
9:15 AM 42.3 °F 37.9 °F 35.4 °F 77% 30.36 in 10.0 mi West 6.9 mph - N/A   Clear
9:35 AM 43.0 °F 39.5 °F 36.0 °F 76% 30.37 in 10.0 mi WNW 5.8 mph - N/A   Clear
9:55 AM 43.7 °F 40.3 °F 37.0 °F 77% 30.40 in 10.0 mi West 5.8 mph - N/A   Clear
10:15 AM 44.6 °F 42.2 °F 37.0 °F 75% 30.40 in 10.0 mi West 4.6 mph - N/A   Clear
10:55 AM 48.2 °F - 36.7 °F 64% 30.39 in 10.0 mi NW 8.1 mph - N/A   Clear
11:35 AM 49.1 °F - 35.4 °F 59% 30.40 in 10.0 mi WNW 8.1 mph - N/A   Clear
12:15 PM 50.2 °F - 36.0 °F 58% 30.38 in 10.0 mi WNW 9.2 mph - N/A   Clear
12:35 PM 51.3 °F - 36.9 °F 58% 30.37 in 10.0 mi NW 5.8 mph - N/A   Clear
12:55 PM 52.2 °F - 35.8 °F 54% 30.37 in 10.0 mi WNW 9.2 mph - N/A   Clear
1:15 PM 52.9 °F - 36.0 °F 53% 30.37 in 10.0 mi WNW 9.2 mph - N/A   Clear
1:35 PM 52.9 °F - 34.7 °F 50% 30.38 in 10.0 mi NW 11.5 mph - N/A   Clear
1:55 PM 53.1 °F - 33.8 °F 48% 30.39 in 10.0 mi NNW 9.2 mph - N/A   Clear
2:15 PM 51.8 °F - 33.6 °F 50% 30.40 in 10.0 mi NW 10.4 mph - N/A   Clear
2:35 PM 51.6 °F - 32.9 °F 49% 30.40 in 10.0 mi NNW 6.9 mph - N/A   Clear
2:55 PM 50.5 °F - 32.4 °F 50% 30.41 in 10.0 mi NNW 9.2 mph - N/A   Clear
3:15 PM 50.0 °F - 33.6 °F 53% 30.41 in 10.0 mi NNW 10.4 mph - N/A   Clear
3:35 PM 49.5 °F - 34.3 °F 56% 30.42 in 10.0 mi NNW 8.1 mph - N/A   Clear
3:55 PM 48.2 °F - 35.1 °F 60% 30.42 in 10.0 mi North 8.1 mph - N/A   Clear
4:15 PM 45.7 °F 41.5 °F 33.8 °F 63% 30.43 in 10.0 mi North 8.1 mph - N/A   Clear
4:35 PM 44.6 °F 39.7 °F 32.9 °F 64% 30.43 in 10.0 mi North 9.2 mph - N/A   Clear
4:55 PM 41.7 °F 38.8 °F 33.1 °F 71% 30.43 in 10.0 mi North 4.6 mph - N/A   Clear
5:15 PM 42.1 °F - 33.3 °F 71% 30.43 in 10.0 mi Calm Calm - N/A   Clear
5:35 PM 41.5 °F 38.6 °F 32.9 °F 71% 30.44 in 10.0 mi North 4.6 mph - N/A   Clear
5:55 PM 42.8 °F 39.3 °F 33.6 °F 70% 30.44 in 10.0 mi NNE 5.8 mph - N/A   Clear
6:15 PM 40.6 °F 37.5 °F 32.0 °F 71% 30.46 in 10.0 mi NNE 4.6 mph - N/A   Clear
6:35 PM 40.3 °F 38.2 °F 30.7 °F 69% 30.47 in 10.0 mi NE 3.5 mph - N/A   Clear
6:55 PM 37.2 °F - 30.9 °F 78% 30.48 in 10.0 mi Calm Calm - N/A   Clear
7:15 PM 37.8 °F 34.2 °F 30.9 °F 76% 30.48 in 10.0 mi NE 4.6 mph - N/A   Clear
7:35 PM 37.2 °F 34.7 °F 30.4 °F 76% 30.49 in 10.0 mi East 3.5 mph - N/A   Clear
8:15 PM 36.1 °F 32.3 °F 31.5 °F 83% 30.49 in 10.0 mi East 4.6 mph - N/A   Clear
8:35 PM 38.5 °F 35.0 °F 32.0 °F 78% 30.48 in 10.0 mi East 4.6 mph - N/A   Clear
8:55 PM 38.1 °F 32.3 °F 32.0 °F 79% 30.47 in 10.0 mi NE 8.1 mph - N/A   Clear
9:15 PM 37.4 °F 32.8 °F 31.6 °F 80% 30.47 in 10.0 mi NE 5.8 mph - N/A   Clear
9:35 PM 38.3 °F 33.9 °F 30.2 °F 73% 30.47 in 10.0 mi ENE 5.8 mph - N/A   Clear
9:55 PM 37.9 °F 34.4 °F 30.0 °F 73% 30.47 in 10.0 mi East 4.6 mph - N/A   Clear
10:15 PM 37.9 °F 34.4 °F 30.4 °F 74% 30.48 in 10.0 mi ESE 4.6 mph - N/A   Clear
10:35 PM 36.0 °F 33.3 °F 30.4 °F 80% 30.48 in 10.0 mi ESE 3.5 mph - N/A   Clear
10:55 PM 34.2 °F 31.2 °F 29.8 °F 84% 30.48 in 10.0 mi ESE 3.5 mph - N/A   Clear
11:15 PM 35.2 °F 32.4 °F 30.2 °F 82% 30.48 in 10.0 mi East 3.5 mph - N/A   Clear
11:35 PM 35.2 °F 31.2 °F 30.2 °F 82% 30.47 in 10.0 mi East 4.6 mph - N/A   Clear
11:55 PM 34.5 °F 29.4 °F 30.0 °F 84% 30.46 in 10.0 mi East 5.8 mph - N/A   Clear